Camarillo, CA

10:58 PM PDT on March 25, 2017 (GMT -0700)
Camarillo

Weather History for KCMA - December, 2014

Change the Weather History Date:

Wednesday, December 24, 2014

  Actual Average Record
Temperature  
Mean Temperature 61 °F 54 °F  
Max Temperature 73 °F 65 °F 86 °F (1950)
Min Temperature 49 °F 42 °F 32 °F (1987)
Degree Days  
Heating Degree Days 4 12  
Month to date heating degree days 127 273  
Since 1 July heating degree days 214 605  
Cooling Degree Days 0 0  
Month to date cooling degree days 4 0  
Year to date cooling degree days 1013 330  
Growing Degree Days 10 (Base 50)    
Moisture  
Dew Point 47 °F    
Average Humidity 64    
Maximum Humidity 93    
Minimum Humidity 35    
Precipitation  
Precipitation 0.00 in 0.08 in 0.98 in (1971)
Month to date precipitation 4.08 1.18  
Year to date precipitation 9.13 14.34  
Since 1 July precipitation 4.94  
Sea Level Pressure  
Sea Level Pressure 29.98 in    
Wind  
Wind Speed 5 mph (SSW)    
Max Wind Speed 13 mph    
Max Gust Speed 15 mph    
Visibility 10 miles    
Events      
T = Trace of Precipitation, MM = Missing Value Source: NWS Daily Summary

Daily Weather History Graph

Daily Weather History Graph

Search for Another Location

Airport or City:

Trip Planner

Search our weather history database for the weather conditions in past years. The results will help you decide how hot, cold, wet, or windy it might be!

Date:

Astronomy

Dec. 24, 2014 Rise Set
Actual Time 6:59 AM PST 4:52 PM PST
Civil Twilight 6:31 AM PST 5:20 PM PST
Nautical Twilight 6:00 AM PST 5:51 PM PST
Astronomical Twilight 5:30 AM PST 6:22 PM PST
Moon 9:01 AM PST (12/24) 8:14 PM PST (12/24)
Length of Visible Light 10h 48m
Length of Day
9h 52m
Waxing Crescent, 10% of the Moon is Illuminated
Dec 24
Waxing Crescent
Dec 28
First Quarter
Jan 4
Full
Jan 13
Last Quarter
Jan 20
New

Hourly Weather History & Observations

Time (PST) Temp. Dew Point Humidity Pressure Visibility Wind Dir Wind Speed Gust Speed Precip Events Conditions
12:55 AM 63.0 °F 39.0 °F 41% 30.08 in 10.0 mi ENE 10.4 mph - N/A   Clear
1:55 AM 62.1 °F 39.0 °F 43% 30.08 in 10.0 mi ENE 11.5 mph - N/A   Clear
2:55 AM 57.9 °F 39.9 °F 51% 30.09 in 10.0 mi NE 6.9 mph - N/A   Clear
3:55 AM 53.1 °F 42.1 °F 66% 30.08 in 10.0 mi North 3.5 mph - N/A   Clear
4:55 AM 51.1 °F 42.1 °F 71% 30.09 in 10.0 mi Calm Calm - N/A   Clear
5:55 AM 48.9 °F 41.0 °F 74% 30.09 in 10.0 mi NNW 3.5 mph - N/A   Clear
6:55 AM 52.0 °F 41.0 °F 66% 30.10 in 10.0 mi NE 3.5 mph - N/A   Clear
7:55 AM 54.0 °F 42.1 °F 64% 30.10 in 10.0 mi Calm Calm - N/A   Clear
8:55 AM 57.0 °F 46.0 °F 67% 30.10 in 10.0 mi Calm Calm - N/A   Clear
9:55 AM 69.1 °F 41.0 °F 36% 30.08 in 10.0 mi ENE 4.6 mph - N/A   Clear
10:55 AM 70.0 °F 48.9 °F 47% 30.06 in 10.0 mi WNW 4.6 mph - N/A   Clear
11:55 AM 72.0 °F 43.0 °F 35% 30.02 in 10.0 mi SW 3.5 mph - N/A   Clear
12:55 PM 72.0 °F 43.0 °F 35% 30.00 in 10.0 mi SSW 8.1 mph - N/A   Clear
1:55 PM 69.1 °F 46.9 °F 45% 29.96 in 10.0 mi SSW 8.1 mph - N/A   Clear
2:55 PM 70.0 °F 41.0 °F 35% 29.96 in 10.0 mi SSW 10.4 mph - N/A   Clear
3:55 PM 66.0 °F 51.1 °F 59% 29.94 in 10.0 mi SW 9.2 mph - N/A   Clear
4:55 PM 63.0 °F 57.0 °F 81% 29.93 in 10.0 mi South 4.6 mph - N/A   Clear
5:55 PM 62.1 °F 57.0 °F 84% 29.92 in 10.0 mi Calm Calm - N/A   Clear
6:55 PM 59.0 °F 55.9 °F 90% 29.90 in 10.0 mi South 3.5 mph - N/A   Clear
7:55 PM 57.9 °F 54.0 °F 87% 29.90 in 10.0 mi Calm Calm - N/A   Mostly Cloudy
8:13 PM 59.0 °F 55.0 °F 87% 29.86 in 10.0 mi SSE 3.5 mph - N/A   Scattered Clouds
8:55 PM 55.9 °F 53.1 °F 90% 29.87 in 9.0 mi East 6.9 mph - N/A   Clear
9:55 PM 55.9 °F 53.1 °F 90% 29.86 in 8.0 mi West 3.5 mph - N/A   Partly Cloudy
10:55 PM 57.9 °F 52.0 °F 81% 29.84 in 10.0 mi Variable 3.5 mph - N/A   Scattered Clouds
11:03 PM 57.9 °F 52.0 °F 81% 29.81 in 10.0 mi Calm Calm - N/A   Mostly Cloudy
11:55 PM 59.0 °F 51.1 °F 75% 29.83 in 10.0 mi WSW 8.1 mph - N/A   Scattered Clouds